Theta_e
348 347 344 340 339 338 337 338 339 341 341 337 335 337 335 334 335 337 336 335 335 337 338 336 335 336 336 336 337 338 335 336
347 347 344 342 340 338 338 338 339 340 341 338 336 337 337 335 336 337 336 335 334 335 337 336 336 335 335 336 336 335 330 331
348 347 346 345 343 340 339 340 341 342 342 340 337 339 339 338 337 337 338 337 335 336 336 337 336 335 333 334 336 334 335 334
348 348 347 347 344 342 340 339 342 343 343 342 341 341 340 339 338 338 339 338 337 336 337 337 336 335 333 333 334 334 336 335
340 343 344 343 344 341 340 340 339 343 347 346 345 345 343 341 340 339 340 340 338 337 338 337 336 335 333 331 332 333 335 334
319 324 331 334 337 338 341 341 340 339 339 341 341 341 342 344 341 339 340 340 340 338 338 337 336 335 334 332 331 330 332 334
311 313 315 316 319 320 323 326 334 338 339 340 343 342 341 342 343 341 339 341 341 341 339 337 337 336 335 333 332 330 329 335
307 308 308 309 311 312 313 316 320 325 335 334 337 338 338 338 341 341 340 339 342 342 343 339 337 336 335 334 331 332 329 334
301 302 303 305 306 306 307 308 311 313 318 323 321 327 336 337 337 339 338 339 341 341 341 341 339 336 336 335 332 332 330 329
298 298 300 301 301 303 304 305 306 307 309 312 315 322 326 332 337 337 338 336 339 341 341 340 340 337 336 335 333 335 334 330
294 294 296 297 299 299 301 302 303 303 304 306 308 311 315 322 330 336 333 334 336 336 338 339 338 336 337 336 334 334 336 335
292 292 292 293 295 298 298 298 300 300 302 302 304 306 311 313 322 326 327 327 336 336 336 337 338 337 337 336 335 333 335 335
290 290 290 291 292 291 294 295 294 297 297 299 302 305 306 308 311 321 325 328 329 334 336 338 337 337 336 335 335 334 335 336
289 289 289 289 290 289 290 291 293 294 295 297 298 299 302 303 306 308 315 324 329 329 334 335 335 337 335 335 335 335 334 335
288 288 288 288 289 289 289 289 290 292 293 292 294 295 297 300 302 304 308 318 326 325 328 334 334 335 336 333 332 335 333 335
288 288 288 289 288 288 288 288 288 289 289 290 291 293 295 297 299 300 303 308 316 325 326 327 329 332 334 333 332 332 332 332
288 289 288 288 288 288 288 288 288 288 288 289 290 291 293 295 297 300 301 305 311 316 326 324 325 329 332 333 333 331 331 327
288 289 287 288 287 287 288 288 288 289 290 290 291 292 293 294 295 297 299 306 312 317 319 326 327 330 332 332 332 331 330 328
288 287 287 287 287 287 287 288 289 290 291 291 292 293 294 295 296 297 298 300 303 308 312 317 322 331 332 331 331 332 331 330
287 287 286 286 287 287 287 288 289 290 292 293 294 294 295 296 296 297 298 299 300 303 305 308 313 324 330 332 332 332 332 330
Wind_Speed
6 6 7 10 13 13 14 15 17 18 20 21 21 20 20 20 19 19 18 18 17 17 17 17 17 17 17 18 19 17 13 14
6 6 7 8 11 13 14 15 16 18 20 21 22 21 20 21 21 20 19 19 19 19 18 18 18 18 19 19 19 18 15 18
6 6 5 7 10 13 15 15 15 17 18 19 21 23 22 22 22 21 20 19 18 19 18 19 19 19 20 20 19 20 18 15
8 7 7 8 10 11 15 16 15 16 18 20 21 23 23 23 23 22 22 21 20 19 19 19 20 21 20 20 21 21 20 16
12 6 7 9 10 12 13 15 16 16 16 18 20 20 22 24 24 24 23 22 22 21 21 21 23 23 22 23 23 22 22 18
23 20 14 11 8 8 7 9 15 18 19 19 19 21 22 24 27 28 27 26 26 26 25 25 24 24 23 24 24 23 23 20
22 19 18 16 15 14 14 13 8 9 19 21 21 24 26 24 27 28 31 29 29 28 28 28 27 25 25 26 26 26 25 23
21 20 20 18 16 15 15 14 11 9 8 10 12 21 28 29 29 31 32 33 30 29 28 29 29 28 27 27 27 27 27 27
25 23 22 20 19 18 16 15 13 13 12 13 15 16 15 28 29 30 35 32 28 29 28 28 30 30 30 29 28 29 27 28
26 26 26 25 24 21 19 18 15 14 14 15 16 17 19 21 28 28 29 29 33 33 32 29 27 29 33 33 32 29 27 28
30 31 31 31 29 28 25 19 17 19 20 17 17 16 17 18 23 29 21 28 33 38 33 34 31 26 28 33 34 35 31 29
30 30 31 33 30 31 28 23 23 26 20 23 23 20 18 20 16 14 27 51 30 31 35 35 30 28 24 29 34 35 34 33
31 33 34 33 28 33 31 23 33 23 31 25 20 19 20 17 17 15 25 34 40 26 33 30 28 27 21 18 24 32 34 36
29 30 31 31 25 27 19 28 29 33 27 23 24 23 22 20 20 20 22 21 46 39 27 27 26 27 19 10 4 12 31 39
29 31 30 30 29 27 28 28 23 24 29 28 25 26 30 21 21 24 20 16 24 43 38 27 24 29 33 13 3 5 5 20
25 27 29 28 29 28 25 25 26 24 27 30 27 24 24 24 22 27 27 20 21 29 56 40 25 26 21 35 30 11 3 2
25 24 26 25 25 23 24 23 25 27 26 27 25 24 23 22 21 21 26 24 18 21 40 43 42 38 33 23 28 25 18 3
26 24 28 26 26 27 26 26 27 28 27 27 25 22 23 21 23 24 23 21 19 14 16 33 49 45 36 33 26 12 14 11
28 28 28 28 27 27 27 26 28 28 26 25 25 24 21 22 21 23 25 26 27 26 25 22 27 25 32 32 33 32 21 24
28 29 29 30 29 29 27 26 26 26 25 25 25 25 26 27 26 24 23 24 26 26 29 30 26 24 27 34 31 29 25 19
Wind_Direction
202 224 222 224 232 229 224 216 210 209 208 206 206 202 200 196 193 189 186 185 185 184 182 178 177 180 181 182 182 184 187 196
217 225 229 237 241 245 241 232 224 217 212 209 209 209 209 207 201 198 196 195 194 192 190 186 184 185 186 191 188 186 178 181
254 251 256 253 254 255 250 245 236 226 220 217 215 216 213 214 212 207 204 205 204 201 199 194 190 191 191 194 196 191 193 193
309 290 298 296 279 271 261 248 243 234 228 227 227 227 224 219 220 217 214 211 211 210 209 202 195 195 196 199 203 198 198 196
42 24 345 327 316 298 285 265 253 248 243 243 240 237 237 232 226 225 222 217 215 213 214 211 205 199 202 204 207 205 204 203
54 54 52 36 4 355 341 317 280 269 255 246 241 241 241 237 234 227 226 222 220 217 214 216 218 210 208 210 211 210 210 211
39 42 42 39 39 36 36 29 6 299 278 271 252 242 241 239 237 235 228 228 225 222 221 219 220 221 213 218 214 210 210 210
25 25 25 22 22 21 19 17 10 357 310 334 306 274 260 253 242 237 236 228 227 227 223 225 223 222 222 219 224 219 210 213
19 10 8 6 1 0 1 358 353 353 335 312 322 320 327 266 256 248 247 235 229 228 229 229 230 224 224 221 224 228 219 217
7 1 357 355 351 344 341 342 341 336 328 328 329 311 302 289 267 251 258 253 239 230 227 229 229 228 226 225 224 223 225 221
4 360 355 350 345 340 337 332 328 331 330 319 314 314 313 301 291 230 254 280 248 243 230 225 224 224 227 231 228 225 225 226
2 0 355 352 347 340 338 334 323 328 321 322 320 315 308 313 293 282 238 250 250 245 238 233 223 216 217 228 233 233 231 223
0 356 355 356 354 351 340 331 327 323 318 322 323 313 308 300 306 273 275 264 244 246 241 231 229 219 203 211 226 233 231 230
355 354 353 351 345 340 327 319 315 318 321 309 306 308 300 298 289 291 272 305 237 235 253 233 240 224 214 180 200 222 234 234
349 349 349 346 342 336 330 324 316 319 316 318 315 304 299 300 291 287 281 272 262 221 247 246 236 232 222 211 170 212 194 225
347 346 344 342 340 332 326 318 312 311 307 306 304 304 300 295 290 286 279 275 257 247 228 249 245 260 245 241 223 188 170 260
349 345 343 338 335 330 321 313 306 306 304 304 304 300 300 300 290 282 279 273 268 266 224 230 255 250 235 240 220 215 212 164
348 347 344 344 339 333 327 319 312 309 307 303 304 303 301 294 291 279 277 268 257 256 257 228 245 245 239 238 233 211 208 210
348 350 346 345 340 335 330 323 315 306 302 301 300 299 295 293 288 279 271 271 262 255 248 248 255 251 241 241 242 237 226 225
347 349 343 342 339 336 332 328 322 313 307 298 289 288 288 287 283 279 270 269 273 268 263 261 258 252 252 242 236 229 222 233